This is the latest recevied weather packets stored in our database for station/object OK3MS-5. If no packets are shown the sender has not sent any weather packets the latest 10 day(s).
| Time | Temp. | Humidity | Pressure | Rain* | Wind** | Luminosity | Snow |
|---|---|---|---|---|---|---|---|
| 1787600703 | 15.56° C | 60% | 1017.6 hPa | 0 mm | - | 0 W/m² | - |
| 1787600404 | 16.11° C | 60% | 1017.5 hPa | 0 mm | - | 0 W/m² | - |
| 1787600108 | 16.11° C | 59% | 1017.4 hPa | 0 mm | - | 0 W/m² | - |
| 1787599805 | 16.67° C | 58% | 1017.4 hPa | 0 mm | - | 0 W/m² | - |
| 1787599505 | 16.67° C | 57% | 1017.4 hPa | 0 mm | - | 0 W/m² | - |
| 1787599205 | 16.67° C | 58% | 1017.4 hPa | 0 mm | - | 0 W/m² | - |
| 1787598904 | 16.67° C | 58% | 1017.5 hPa | 0 mm | - | 0 W/m² | - |
| 1787598603 | 16.67° C | 58% | 1017.3 hPa | 0 mm | - | 0 W/m² | - |
| 1787598304 | 16.67° C | 58% | 1017.1 hPa | 0 mm | - | 0 W/m² | - |
| 1787598005 | 16.67° C | 58% | 1016.9 hPa | 0 mm | - | 0 W/m² | - |
| 1787597704 | 17.22° C | 58% | 1016.8 hPa | 0 mm | - | 0 W/m² | - |
| 1787597403 | 16.67° C | 59% | 1016.9 hPa | 0 mm | - | 0 W/m² | - |
| 1787597103 | 17.22° C | 61% | 1016.9 hPa | 0 mm | - | 0 W/m² | - |
| 1787596803 | 17.22° C | 59% | 1016.7 hPa | 0 mm | - | 0 W/m² | - |
| 1787596504 | 17.78° C | 59% | 1016.7 hPa | 0 mm | - | 0 W/m² | - |
| 1787596206 | 17.78° C | 58% | 1016.6 hPa | 0 mm | - | 0 W/m² | - |
| 1787595905 | 17.78° C | 57% | 1016.6 hPa | 0 mm | - | 0 W/m² | - |
| 1787595605 | 18.33° C | 57% | 1016.7 hPa | 0 mm | - | 0 W/m² | - |
| 1787595305 | 18.33° C | 55% | 1016.6 hPa | 0 mm | - | 0 W/m² | - |
| 1787595003 | 18.89° C | 54% | 1016.6 hPa | 0 mm | - | 1 W/m² | - |
| 1787594705 | 18.89° C | 53% | 1016.4 hPa | 0 mm | - | 2 W/m² | - |
| 1787594404 | 18.89° C | 52% | 1016.4 hPa | 0 mm | - | 3 W/m² | - |
| 1787594104 | 19.44° C | 52% | 1016.6 hPa | 0 mm | - | 4 W/m² | - |
| 1787593803 | 19.44° C | 50% | 1016.6 hPa | 0 mm | - | 6 W/m² | - |
| 1787593504 | 19.44° C | 50% | 1016.4 hPa | 0 mm | - | 7 W/m² | - |
* Rain latest hour (hover to see other rain measurements)
** Current wind speed in m/s (hover to see current wind gust speed)